Location: Unspecified
(0.0000°N, 0.0000°E)
Time: 13:33:03
(UTC+00:00)

Vanguard 3 - Pass Details

Date: 06 December 2025
Orbit: 507 x 3207 km, 33.3° (Epoch: 22 January)

Event Time Altitude Azimuth Distance (km) Brightness Sun altitude
Rises 03:46:04 0° 242° (WSW) 5,852 - -28.6°
Exits shadow 03:46:49 - 240° (WSW) 5,765 11.2 -28.4°
Reaches altitude 10° 03:51:53 10° 224° (SW) 5,319 11.1 -27.3°
Maximum altitude 04:01:50 18° 186° (S) 5,225 11.4 -25.1°
Drops below altitude 10° 04:13:14 10° 150° (SSE) 6,132 12.3 -22.5°
Sets 04:21:00 0° 133° (SE) 7,074 13.2 -20.7°
